| time (UTC) | temp C | wind direction | speed KPH | gust KPH | rain 1hr cm | rain 24hr cm | rain mn cm | humidity % | barometer mb |
| 20260508194613 | 14 | 44 | 9.7 | 14.5 | 0.00 | 0.10 | 0.10 | 76 | 1010.5 |
| 20260508194113 | 15 | 59 | 6.4 | 14.5 | 0.00 | 0.10 | 0.10 | 74 | 1010.4 |
| 20260508193613 | 15 | 55 | 3.2 | 11.3 | 0.00 | 0.10 | 0.10 | 73 | 1010.6 |
| 20260508193113 | 15 | 43 | 3.2 | 9.7 | 0.00 | 0.10 | 0.10 | 73 | 1010.5 |
| 20260508192611 | 15 | 53 | 4.8 | 11.3 | 0.00 | 0.10 | 0.10 | 72 | 1010.7 |
| 20260508192111 | 15 | 54 | 3.2 | 11.3 | 0.00 | 0.10 | 0.10 | 72 | 1010.8 |
| 20260508191611 | 15 | 55 | 1.6 | 9.7 | 0.00 | 0.10 | 0.10 | 71 | 1010.8 |
| 20260508191114 | 15 | 72 | 3.2 | 8.0 | 0.00 | 0.10 | 0.10 | 72 | 1011.0 |
| 20260508190610 | 14 | 71 | 3.2 | 8.0 | 0.00 | 0.10 | 0.10 | 74 | 1011.0 |
| 20260508190109 | 14 | 9 | 3.2 | 6.4 | 0.00 | 0.10 | 0.10 | 74 | 1011.2 |
| 20260508185609 | 14 | 9 | 1.6 | 6.4 | 0.00 | 0.10 | 0.10 | 74 | 1011.5 |
| 20260508185109 | 15 | 0 | 1.6 | 6.4 | 0.00 | 0.10 | 0.10 | 74 | 1011.5 |
| 20260508184833 | 14 | 351 | 3.2 | 6.4 | 0.00 | 0.10 | 0.10 | 75 | 1011.7 |
| 20260508184057 | 14 | 346 | 3.2 | 6.4 | 0.00 | 0.10 | 0.10 | 73 | 1011.7 |
| 20260508183551 | 14 | 355 | 3.2 | 6.4 | 0.00 | 0.10 | 0.10 | 72 | 1011.8 |
| 20260508183044 | 15 | 0 | 3.2 | 8.0 | 0.00 | 0.10 | 0.10 | 73 | 1011.8 |
| 20260508182538 | 14 | 342 | 4.8 | 8.0 | 0.00 | 0.10 | 0.10 | 72 | 1011.8 |
| 20260508182032 | 14 | 323 | 3.2 | 9.7 | 0.00 | 0.10 | 0.10 | 72 | 1012.0 |
| 20260508181526 | 15 | 319 | 3.2 | 12.9 | 0.00 | 0.10 | 0.10 | 70 | 1012.0 |
| 20260508181021 | 15 | 316 | 4.8 | 12.9 | 0.00 | 0.10 | 0.10 | 71 | 1012.1 |
| 20260508180516 | 15 | 304 | 6.4 | 12.9 | 0.00 | 0.10 | 0.10 | 69 | 1012.2 |
| 20260508180109 | 15 | 239 | 6.4 | 12.9 | 0.00 | 0.10 | 0.10 | 67 | 1012.3 |
| 20260508174957 | 14 | 219 | 8.0 | 17.7 | 0.00 | 0.10 | 0.10 | 69 | 1012.4 |
| 20260508174451 | 14 | 286 | 8.0 | 19.3 | 0.00 | 0.10 | 0.10 | 69 | 1012.5 |
| 20260508173945 | 14 | 237 | 11.3 | 29.0 | 0.00 | 0.10 | 0.10 | 70 | 1012.5 |
| 20260508173438 | 14 | 244 | 12.9 | 29.0 | 0.00 | 0.10 | 0.10 | 69 | 1012.5 |
| 20260508172932 | 14 | 211 | 14.5 | 29.0 | 0.00 | 0.10 | 0.10 | 70 | 1012.5 |
| 20260508172426 | 14 | 239 | 12.9 | 29.0 | 0.00 | 0.10 | 0.10 | 69 | 1012.4 |
| 20260508171920 | 15 | 211 | 11.3 | 20.9 | 0.00 | 0.10 | 0.10 | 72 | 1012.5 |
| 20260508171415 | 14 | 234 | 12.9 | 20.9 | 0.00 | 0.10 | 0.10 | 73 | 1012.4 |
| 20260508170909 | 14 | 231 | 11.3 | 20.9 | 0.00 | 0.10 | 0.10 | 73 | 1012.6 |
| 20260508170402 | 13 | 220 | 12.9 | 20.9 | 0.00 | 0.10 | 0.10 | 74 | 1012.6 |
| 20260508165856 | 13 | 0 | 9.7 | 20.9 | 0.00 | 0.10 | 0.10 | 74 | 1012.8 |
| 20260508165351 | 13 | 200 | 9.7 | 16.1 | 0.00 | 0.10 | 0.10 | 79 | 1012.9 |
| 20260508165116 | 12 | 224 | 9.7 | 16.1 | 0.00 | 0.10 | 0.10 | 79 | 1013.1 |
| 20260508164338 | 12 | 0 | 9.7 | 14.5 | 0.03 | 0.10 | 0.10 | 82 | 1013.4 |
| 20260508163837 | 11 | 0 | 8.0 | 14.5 | 0.03 | 0.10 | 0.10 | 82 | 1013.5 |
| 20260508163337 | 11 | 0 | 6.4 | 14.5 | 0.03 | 0.10 | 0.10 | 84 | 1013.6 |
| 20260508162835 | 11 | 0 | 6.4 | 12.9 | 0.03 | 0.10 | 0.10 | 86 | 1013.7 |
| 20260508162606 | 11 | 0 | 3.2 | 9.7 | 0.03 | 0.10 | 0.10 | 86 | 1013.7 |
| 20260508161834 | 11 | 0 | 1.6 | 8.0 | 0.05 | 0.10 | 0.10 | 87 | 1013.7 |
| 20260508161335 | 11 | 0 | 3.2 | 16.1 | 0.05 | 0.10 | 0.10 | 87 | 1013.8 |
| 20260508160836 | 10 | 0 | 4.8 | 16.1 | 0.05 | 0.10 | 0.10 | 87 | 1013.9 |
| 20260508160335 | 10 | 0 | 8.0 | 16.1 | 0.08 | 0.10 | 0.10 | 86 | 1014.0 |
| 20260508155835 | 10 | 0 | 8.0 | 17.7 | 0.08 | 0.10 | 0.10 | 86 | 1014.2 |
| 20260508155335 | 10 | 0 | 8.0 | 17.7 | 0.08 | 0.10 | 0.10 | 86 | 1014.2 |
| 20260508154835 | 10 | 0 | 9.7 | 22.5 | 0.08 | 0.10 | 0.10 | 85 | 1014.3 |
| 20260508154335 | 10 | 0 | 11.3 | 22.5 | 0.05 | 0.08 | 0.08 | 85 | 1014.2 |
| 20260508153835 | 10 | 0 | 11.3 | 19.3 | 0.05 | 0.08 | 0.08 | 85 | 1014.3 |
| 20260508153335 | 10 | 271 | 9.7 | 19.3 | 0.05 | 0.08 | 0.08 | 86 | 1014.3 |
| 20260508152835 | 10 | 0 | 8.0 | 16.1 | 0.05 | 0.08 | 0.08 | 86 | 1014.2 |
| 20260508152335 | 10 | 0 | 9.7 | 17.7 | 0.05 | 0.08 | 0.08 | 85 | 1014.3 |
| 20260508151834 | 10 | 0 | 8.0 | 16.1 | 0.03 | 0.05 | 0.05 | 84 | 1014.4 |
| 20260508151328 | 10 | 0 | 8.0 | 16.1 | 0.03 | 0.05 | 0.05 | 84 | 1014.3 |
| 20260508150824 | 10 | 0 | 9.7 | 16.1 | 0.03 | 0.05 | 0.05 | 82 | 1014.2 |
| 20260508150325 | 11 | 253 | 9.7 | 16.1 | 0.00 | 0.03 | 0.03 | 81 | 1014.3 |
| 20260508145823 | 11 | 0 | 9.7 | 20.9 | 0.00 | 0.03 | 0.03 | 81 | 1013.9 |
| 20260508145554 | 11 | 223 | 8.0 | 20.9 | 0.00 | 0.03 | 0.03 | 81 | 1013.9 |
| 20260508144823 | 11 | 0 | 9.7 | 20.9 | 0.00 | 0.03 | 0.03 | 80 | 1013.8 |
| 20260508144554 | 11 | 0 | 8.0 | 20.9 | 0.00 | 0.03 | 0.03 | 78 | 1013.9 |
| 20260508143827 | 11 | 0 | 9.7 | 19.3 | 0.00 | 0.03 | 0.03 | 77 | 1013.8 |
| 20260508143823 | 11 | 0 | 8.0 | 19.3 | 0.00 | 0.03 | 0.03 | 77 | 1013.7 |
| 20260508142820 | 11 | 0 | 9.7 | 19.3 | 0.00 | 0.03 | 0.03 | 76 | 1013.7 |
| 20260508142320 | 11 | 0 | 11.3 | 20.9 | 0.00 | 0.03 | 0.03 | 75 | 1013.6 |
| 20260508142053 | 11 | 0 | 11.3 | 20.9 | 0.00 | 0.03 | 0.03 | 75 | 1013.7 |
| 20260508141553 | 11 | 0 | 12.9 | 20.9 | 0.00 | 0.03 | 0.03 | 74 | 1013.6 |
| 20260508141054 | 11 | 0 | 12.9 | 20.9 | 0.00 | 0.03 | 0.03 | 73 | 1013.6 |
| 20260508140323 | 11 | 0 | 12.9 | 24.1 | 0.00 | 0.03 | 0.03 | 74 | 1013.8 |
| 20260508135821 | 11 | 0 | 12.9 | 24.1 | 0.00 | 0.03 | 0.03 | 73 | 1013.7 |
| 20260508135321 | 11 | 0 | 12.9 | 24.1 | 0.00 | 0.03 | 0.03 | 73 | 1013.8 |
| 20260508134818 | 11 | 0 | 12.9 | 24.1 | 0.00 | 0.03 | 0.03 | 73 | 1013.7 |
| 20260508134318 | 11 | 0 | 11.3 | 22.5 | 0.00 | 0.03 | 0.03 | 74 | 1013.8 |
| 20260508133819 | 11 | 0 | 11.3 | 22.5 | 0.00 | 0.03 | 0.03 | 73 | 1013.6 |
| 20260508133551 | 11 | 0 | 12.9 | 22.5 | 0.00 | 0.03 | 0.03 | 73 | 1013.6 |
| 20260508133049 | 11 | 0 | 14.5 | 22.5 | 0.00 | 0.03 | 0.03 | 73 | 1013.7 |
| 20260508132319 | 11 | 0 | 16.1 | 24.1 | 0.00 | 0.03 | 0.03 | 74 | 1013.8 |
| 20260508131819 | 11 | 0 | 14.5 | 24.1 | 0.00 | 0.03 | 0.03 | 73 | 1013.8 |
| 20260508131550 | 11 | 0 | 12.9 | 24.1 | 0.00 | 0.03 | 0.03 | 72 | 1013.8 |
| 20260508130819 | 11 | 0 | 11.3 | 24.1 | 0.00 | 0.03 | 0.03 | 73 | 1013.7 |
| 20260508130549 | 11 | 0 | 12.9 | 24.1 | 0.00 | 0.03 | 0.03 | 73 | 1013.8 |
| 20260508125819 | 11 | 0 | 14.5 | 24.1 | 0.00 | 0.03 | 0.03 | 72 | 1013.7 |
| 20260508125319 | 11 | 0 | 12.9 | 20.9 | 0.00 | 0.03 | 0.03 | 72 | 1013.7 |
| 20260508125055 | 11 | 0 | 12.9 | 22.5 | 0.00 | 0.03 | 0.03 | 73 | 1013.7 |
| 20260508124318 | 11 | 0 | 14.5 | 22.5 | 0.00 | 0.03 | 0.03 | 72 | 1013.7 |
| 20260508123818 | 11 | 0 | 11.3 | 19.3 | 0.00 | 0.03 | 0.03 | 73 | 1013.7 |
| 20260508123318 | 11 | 0 | 11.3 | 19.3 | 0.00 | 0.03 | 0.03 | 73 | 1013.7 |
| 20260508122817 | 11 | 0 | 11.3 | 19.3 | 0.00 | 0.03 | 0.03 | 73 | 1013.7 |
| 20260508122314 | 11 | 0 | 11.3 | 22.5 | 0.00 | 0.03 | 0.03 | 73 | 1013.7 |
| 20260508121814 | 11 | 0 | 11.3 | 22.5 | 0.00 | 0.03 | 0.03 | 73 | 1013.6 |
| 20260508121312 | 10 | 0 | 12.9 | 22.5 | 0.00 | 0.03 | 0.03 | 73 | 1013.6 |
| 20260508121044 | 10 | 0 | 12.9 | 22.5 | 0.00 | 0.03 | 0.03 | 73 | 1013.7 |
| 20260508120313 | 10 | 0 | 11.3 | 22.5 | 0.00 | 0.03 | 0.03 | 74 | 1013.7 |
| 20260508120041 | 10 | 0 | 11.3 | 19.3 | 0.00 | 0.03 | 0.03 | 74 | 1013.6 |
| 20260508115310 | 10 | 0 | 11.3 | 19.3 | 0.00 | 0.03 | 0.03 | 74 | 1013.6 |
| 20260508114808 | 10 | 0 | 9.7 | 16.1 | 0.00 | 0.03 | 0.03 | 74 | 1013.6 |
| 20260508114309 | 10 | 0 | 9.7 | 17.7 | 0.00 | 0.03 | 0.03 | 75 | 1013.5 |
| 20260508113808 | 10 | 0 | 11.3 | 17.7 | 0.00 | 0.03 | 0.03 | 75 | 1013.5 |
| 20260508113311 | 10 | 0 | 11.3 | 16.1 | 0.00 | 0.03 | 0.03 | 75 | 1013.4 |
| 20260508113040 | 9 | 0 | 11.3 | 16.1 | 0.00 | 0.03 | 0.03 | 76 | 1013.4 |
| 20260508112307 | 9 | 0 | 11.3 | 16.1 | 0.00 | 0.03 | 0.03 | 76 | 1013.3 |
| 20260508111758 | 9 | 0 | 11.3 | 24.1 | 0.00 | 0.03 | 0.03 | 76 | 1013.2 |
| 20260508111252 | 9 | 0 | 11.3 | 24.1 | 0.00 | 0.03 | 0.03 | 76 | 1013.2 |
| 20260508110746 | 8 | 0 | 11.3 | 24.1 | 0.00 | 0.03 | 0.03 | 76 | 1013.2 |
| 20260508110239 | 8 | 0 | 11.3 | 24.1 | 0.00 | 0.03 | 0.03 | 76 | 1013.2 |
| 20260508105732 | 8 | 0 | 8.0 | 16.1 | 0.00 | 0.03 | 0.03 | 76 | 1013.1 |
| 20260508105456 | 8 | 0 | 8.0 | 14.5 | 0.00 | 0.03 | 0.03 | 76 | 1013.1 |
| 20260508104718 | 8 | 0 | 8.0 | 14.5 | 0.00 | 0.03 | 0.03 | 76 | 1013.2 |
| 20260508104213 | 8 | 0 | 8.0 | 14.5 | 0.00 | 0.03 | 0.03 | 76 | 1013.2 |
| 20260508103706 | 8 | 0 | 6.4 | 14.5 | 0.00 | 0.03 | 0.03 | 76 | 1013.1 |
| 20260508103159 | 8 | 0 | 6.4 | 14.5 | 0.00 | 0.03 | 0.03 | 76 | 1013.1 |
| 20260508102654 | 8 | 0 | 8.0 | 14.5 | 0.00 | 0.03 | 0.03 | 76 | 1013.1 |
| 20260508102148 | 8 | 0 | 8.0 | 14.5 | 0.00 | 0.03 | 0.03 | 76 | 1013.0 |
| 20260508101642 | 8 | 0 | 8.0 | 14.5 | 0.00 | 0.03 | 0.03 | 76 | 1013.1 |
| 20260508101136 | 8 | 0 | 8.0 | 16.1 | 0.00 | 0.03 | 0.03 | 76 | 1013.2 |
| 20260508100631 | 8 | 0 | 8.0 | 16.1 | 0.00 | 0.03 | 0.03 | 76 | 1013.1 |
| 20260508100124 | 8 | 0 | 8.0 | 16.1 | 0.00 | 0.03 | 0.03 | 76 | 1013.1 |
| 20260508095618 | 8 | 232 | 9.7 | 19.3 | 0.00 | 0.03 | 0.03 | 76 | 1013.1 |
| 20260508095112 | 8 | 0 | 9.7 | 19.3 | 0.00 | 0.03 | 0.03 | 76 | 1013.1 |
| 20260508094607 | 8 | 0 | 11.3 | 19.3 | 0.00 | 0.03 | 0.03 | 77 | 1013.1 |
| 20260508094100 | 8 | 0 | 11.3 | 19.3 | 0.00 | 0.03 | 0.03 | 77 | 1013.1 |
| 20260508093555 | 8 | 0 | 9.7 | 17.7 | 0.00 | 0.03 | 0.03 | 77 | 1013.2 |
| 20260508093048 | 8 | 0 | 9.7 | 17.7 | 0.00 | 0.03 | 0.03 | 77 | 1013.2 |
| 20260508092542 | 8 | 0 | 9.7 | 17.7 | 0.00 | 0.03 | 0.03 | 77 | 1013.2 |
| 20260508092036 | 8 | 0 | 11.3 | 17.7 | 0.00 | 0.03 | 0.03 | 78 | 1013.2 |
| 20260508091530 | 8 | 0 | 9.7 | 17.7 | 0.00 | 0.03 | 0.03 | 78 | 1013.2 |
| 20260508091024 | 8 | 0 | 9.7 | 19.3 | 0.00 | 0.03 | 0.03 | 78 | 1013.2 |
| 20260508090518 | 8 | 0 | 9.7 | 19.3 | 0.00 | 0.03 | 0.03 | 78 | 1013.2 |
| 20260508090012 | 8 | 0 | 9.7 | 19.3 | 0.00 | 0.03 | 0.03 | 78 | 1013.2 |
| 20260508085506 | 8 | 0 | 9.7 | 19.3 | 0.00 | 0.03 | 0.03 | 78 | 1013.2 |
| 20260508085000 | 8 | 0 | 9.7 | 17.7 | 0.00 | 0.03 | 0.03 | 78 | 1013.2 |
| 20260508084454 | 8 | 0 | 9.7 | 17.7 | 0.00 | 0.03 | 0.03 | 79 | 1013.1 |
| 20260508084220 | 8 | 0 | 8.0 | 16.1 | 0.00 | 0.03 | 0.03 | 79 | 1013.1 |
| 20260508083442 | 8 | 0 | 8.0 | 16.1 | 0.00 | 0.03 | 0.03 | 79 | 1013.2 |
| 20260508083206 | 8 | 0 | 9.7 | 16.1 | 0.00 | 0.03 | 0.03 | 79 | 1013.1 |
| 20260508082430 | 8 | 0 | 9.7 | 16.1 | 0.00 | 0.03 | 0.03 | 78 | 1013.2 |
| 20260508081924 | 9 | 0 | 8.0 | 12.9 | 0.00 | 0.03 | 0.03 | 79 | 1013.1 |
| 20260508081418 | 8 | 0 | 8.0 | 12.9 | 0.00 | 0.03 | 0.03 | 80 | 1013.2 |
| 20260508081143 | 8 | 0 | 8.0 | 12.9 | 0.00 | 0.03 | 0.03 | 79 | 1013.2 |
| 20260508080406 | 9 | 0 | 8.0 | 14.5 | 0.00 | 0.03 | 0.03 | 78 | 1013.3 |
| 20260508075902 | 10 | 0 | 8.0 | 14.5 | 0.00 | 0.03 | 0.03 | 78 | 1013.3 |
| 20260508075633 | 9 | 200 | 8.0 | 16.1 | 0.00 | 0.03 | 0.03 | 80 | 1013.3 |
| 20260508074900 | 9 | 0 | 8.0 | 16.1 | 0.00 | 0.03 | 0.03 | 80 | 1013.4 |
| 20260508074358 | 9 | 0 | 8.0 | 14.5 | 0.00 | 0.03 | 0.03 | 79 | 1013.3 |
| 20260508073858 | 10 | 0 | 6.4 | 12.9 | 0.00 | 0.03 | 0.03 | 79 | 1013.5 |
| 20260508073358 | 10 | 0 | 6.4 | 12.9 | 0.00 | 0.03 | 0.03 | 81 | 1013.4 |
| 20260508073127 | 9 | 0 | 6.4 | 12.9 | 0.00 | 0.03 | 0.03 | 82 | 1013.4 |
| 20260508072354 | 9 | 0 | 6.4 | 9.7 | 0.00 | 0.03 | 0.03 | 81 | 1013.4 |
| 20260508072125 | 9 | 0 | 4.8 | 9.7 | 0.00 | 0.03 | 0.03 | 80 | 1013.5 |
| 20260508071354 | 10 | 0 | 4.8 | 8.0 | 0.00 | 0.03 | 0.03 | 82 | 1013.5 |
| 20260508070856 | 9 | 0 | 3.2 | 6.4 | 0.00 | 0.03 | 0.03 | 84 | 1013.5 |
| 20260508070354 | 9 | 0 | 3.2 | 4.8 | 0.00 | 0.03 | 0.03 | 85 | 1013.6 |
| 20260508065852 | 10 | 0 | 3.2 | 4.8 | 0.00 | 0.03 | 0.03 | 82 | 1013.6 |
| 20260508065352 | 10 | 0 | 3.2 | 4.8 | 0.00 | 0.03 | 0.03 | 83 | 1013.6 |
| 20260508064852 | 10 | 0 | 1.6 | 4.8 | 0.00 | 0.03 | 0.03 | 90 | 1013.7 |
| 20260508064352 | 9 | 0 | 3.2 | 6.4 | 0.00 | 0.03 | 0.03 | 89 | 1013.8 |
| 20260508063851 | 8 | 0 | 3.2 | 6.4 | 0.00 | 0.03 | 0.03 | 86 | 1013.8 |
| 20260508063617 | 10 | 0 | 3.2 | 4.8 | 0.00 | 0.03 | 0.03 | 85 | 1013.9 |
| 20260508062845 | 10 | 0 | 3.2 | 4.8 | 0.00 | 0.03 | 0.03 | 89 | 1013.9 |
| 20260508062344 | 9 | 0 | 3.2 | 4.8 | 0.00 | 0.03 | 0.03 | 93 | 1014.0 |
| 20260508062114 | 8 | 0 | 3.2 | 6.4 | 0.00 | 0.03 | 0.03 | 91 | 1014.0 |
| 20260508061612 | 8 | 0 | 4.8 | 6.4 | 0.00 | 0.03 | 0.03 | 89 | 1014.2 |
| 20260508060841 | 8 | 0 | 3.2 | 6.4 | 0.00 | 0.03 | 0.03 | 88 | 1014.3 |
| 20260508060342 | 8 | 0 | 1.6 | 6.4 | 0.00 | 0.03 | 0.03 | 87 | 1014.3 |
| 20260508060113 | 9 | 0 | 1.6 | 4.8 | 0.00 | 0.03 | 0.03 | 87 | 1014.0 |
| 20260508055342 | 9 | 0 | 3.2 | 4.8 | 0.00 | 0.03 | 0.03 | 86 | 1014.0 |
| 20260508054839 | 10 | 0 | 3.2 | 4.8 | 0.00 | 0.03 | 0.03 | 86 | 1014.0 |
| 20260508054337 | 10 | 0 | 1.6 | 4.8 | 0.00 | 0.03 | 0.03 | 88 | 1014.0 |
| 20260508053838 | 9 | 0 | 1.6 | 4.8 | 0.00 | 0.03 | 0.03 | 88 | 1014.2 |
| 20260508053337 | 10 | 0 | 0.0 | 4.8 | 0.00 | 0.03 | 0.03 | 86 | 1014.2 |
| 20260508052837 | 10 | 0 | 0.0 | 4.8 | 0.00 | 0.03 | 0.03 | 84 | 1014.2 |
| 20260508051840 | 11 | 0 | 3.2 | 8.0 | 0.00 | 0.03 | 0.03 | 86 | 1014.3 |
| 20260508051340 | 10 | 0 | 4.8 | 8.0 | 0.00 | 0.03 | 0.03 | 91 | 1014.2 |
| 20260508050840 | 9 | 0 | 4.8 | 8.0 | 0.00 | 0.03 | 0.03 | 90 | 1014.3 |
| 20260508050337 | 9 | 0 | 3.2 | 6.4 | 0.00 | 0.03 | 0.03 | 88 | 1014.4 |
| 20260508045837 | 9 | 0 | 1.6 | 4.8 | 0.03 | 0.03 | 0.03 | 87 | 1014.5 |
| 20260508045337 | 10 | 0 | 1.6 | 3.2 | 0.03 | 0.03 | 0.03 | 87 | 1014.5 |
| 20260508044838 | 9 | 0 | 3.2 | 4.8 | 0.03 | 0.03 | 0.03 | 89 | 1014.4 |
| 20260508044608 | 9 | 0 | 1.6 | 4.8 | 0.03 | 0.03 | 0.03 | 85 | 1014.6 |
| 20260508043837 | 9 | 0 | 0.0 | 3.2 | 0.03 | 0.03 | 0.03 | 84 | 1014.6 |
| 20260508043337 | 9 | 0 | 1.6 | 4.8 | 0.03 | 0.03 | 0.03 | 85 | 1014.5 |
| 20260508043108 | 9 | 0 | 4.8 | 12.9 | 0.03 | 0.03 | 0.03 | 83 | 1014.6 |
| 20260508042338 | 9 | 0 | 6.4 | 12.9 | 0.03 | 0.03 | 0.03 | 83 | 1014.5 |
| 20260508041838 | 9 | 0 | 6.4 | 27.4 | 0.03 | 0.03 | 0.03 | 83 | 1014.6 |
| 20260508041609 | 9 | 0 | 9.7 | 27.4 | 0.03 | 0.03 | 0.03 | 82 | 1014.8 |
| 20260508040837 | 10 | 0 | 11.3 | 27.4 | 0.03 | 0.03 | 0.03 | 81 | 1014.9 |
| 20260508040337 | 10 | 0 | 8.0 | 27.4 | 0.03 | 0.03 | 0.03 | 78 | 1015.0 |
| 20260508035837 | 10 | 0 | 3.2 | 9.7 | 0.00 | 0.00 | 0.00 | 78 | 1014.8 |
| 20260508035329 | 11 | 0 | 3.2 | 6.4 | 0.00 | 0.00 | 0.00 | 73 | 1014.4 |
| 20260508034822 | 11 | 0 | 3.2 | 14.5 | 0.00 | 0.00 | 0.00 | 71 | 1014.2 |
| 20260508034316 | 12 | 0 | 4.8 | 14.5 | 0.00 | 0.00 | 0.00 | 73 | 1013.8 |
| 20260508034041 | 11 | 0 | 8.0 | 14.5 | 0.00 | 0.00 | 0.00 | 76 | 1013.8 |
| 20260508033305 | 10 | 0 | 9.7 | 14.5 | 0.00 | 0.00 | 0.00 | 73 | 1013.8 |
| 20260508032759 | 11 | 0 | 8.0 | 14.5 | 0.00 | 0.00 | 0.00 | 72 | 1013.8 |
| 20260508032253 | 11 | 0 | 8.0 | 16.1 | 0.00 | 0.00 | 0.00 | 71 | 1013.8 |
| 20260508031747 | 11 | 0 | 8.0 | 16.1 | 0.00 | 0.00 | 0.00 | 72 | 1013.8 |
| 20260508031241 | 10 | 0 | 6.4 | 14.5 | 0.00 | 0.00 | 0.00 | 73 | 1013.8 |
| 20260508031006 | 11 | 0 | 6.4 | 12.9 | 0.00 | 0.00 | 0.00 | 70 | 1013.9 |
| 20260508030229 | 11 | 0 | 6.4 | 12.9 | 0.00 | 0.00 | 0.00 | 69 | 1014.0 |
| 20260508025723 | 11 | 0 | 6.4 | 9.7 | 0.00 | 0.00 | 0.00 | 71 | 1014.2 |
| 20260508025216 | 11 | 0 | 4.8 | 9.7 | 0.00 | 0.00 | 0.00 | 71 | 1014.3 |
| 20260508024941 | 11 | 0 | 6.4 | 9.7 | 0.00 | 0.00 | 0.00 | 69 | 1014.2 |
| 20260508024203 | 11 | 0 | 4.8 | 8.0 | 0.00 | 0.00 | 0.00 | 67 | 1014.2 |
| 20260508023657 | 12 | 0 | 3.2 | 8.0 | 0.00 | 0.00 | 0.00 | 67 | 1014.3 |
| 20260508023152 | 11 | 0 | 4.8 | 8.0 | 0.00 | 0.00 | 0.00 | 69 | 1014.3 |
| 20260508022646 | 11 | 0 | 4.8 | 8.0 | 0.00 | 0.00 | 0.00 | 65 | 1014.3 |
| 20260508022139 | 12 | 0 | 4.8 | 8.0 | 0.00 | 0.00 | 0.00 | 62 | 1014.2 |
| 20260508021633 | 13 | 0 | 3.2 | 6.4 | 0.00 | 0.00 | 0.00 | 61 | 1014.2 |
| 20260508021127 | 12 | 0 | 3.2 | 6.4 | 0.00 | 0.00 | 0.00 | 62 | 1014.2 |
| 20260508020622 | 12 | 0 | 3.2 | 4.8 | 0.00 | 0.00 | 0.00 | 65 | 1014.2 |
| 20260508020346 | 12 | 0 | 3.2 | 6.4 | 0.00 | 0.00 | 0.00 | 61 | 1014.3 |
| 20260508015610 | 13 | 0 | 3.2 | 6.4 | 0.00 | 0.00 | 0.00 | 60 | 1014.2 |
| 20260508015104 | 13 | 0 | 1.6 | 6.4 | 0.00 | 0.00 | 0.00 | 67 | 1014.0 |
| 20260508014558 | 11 | 0 | 0.0 | 4.8 | 0.00 | 0.00 | 0.00 | 75 | 1014.3 |
| 20260508014051 | 11 | 263 | 0.0 | 0.0 | 0.00 | 0.00 | 0.00 | 73 | 1014.3 |
| 20260508013545 | 11 | 0 | 0.0 | 0.0 | 0.00 | 0.00 | 0.00 | 72 | 1014.2 |
| 20260508013311 | 11 | 0 | 0.0 | 0.0 | 0.00 | 0.00 | 0.00 | 74 | 1014.2 |
| 20260508012805 | 11 | 0 | 0.0 | 0.0 | 0.00 | 0.00 | 0.00 | 72 | 1014.2 |
| 20260508012027 | 11 | 0 | 1.6 | 3.2 | 0.00 | 0.00 | 0.00 | 69 | 1014.2 |
| 20260508011753 | 11 | 0 | 1.6 | 4.8 | 0.00 | 0.00 | 0.00 | 66 | 1014.0 |
| 20260508011015 | 12 | 0 | 1.6 | 4.8 | 0.00 | 0.00 | 0.00 | 65 | 1014.0 |
| 20260508010510 | 12 | 0 | 1.6 | 3.2 | 0.00 | 0.00 | 0.00 | 69 | 1013.8 |
| 20260508010003 | 12 | 0 | 1.6 | 3.2 | 0.00 | 0.00 | 0.00 | 68 | 1013.9 |
| 20260508005457 | 12 | 0 | 0.0 | 3.2 | 0.00 | 0.00 | 0.00 | 64 | 1013.8 |
| 20260508005223 | 12 | 0 | 0.0 | 3.2 | 0.00 | 0.00 | 0.00 | 62 | 1013.8 |
| 20260508004445 | 13 | 0 | 1.6 | 3.2 | 0.00 | 0.00 | 0.00 | 61 | 1014.2 |
| 20260508003939 | 12 | 0 | 1.6 | 3.2 | 0.00 | 0.00 | 0.00 | 63 | 1013.9 |
| 20260508003434 | 11 | 0 | 1.6 | 6.4 | 0.00 | 0.00 | 0.00 | 63 | 1013.9 |
| 20260508003159 | 11 | 0 | 1.6 | 6.4 | 0.00 | 0.00 | 0.00 | 61 | 1013.9 |
| 20260508002422 | 11 | 0 | 3.2 | 6.4 | 0.00 | 0.00 | 0.00 | 60 | 1013.9 |
| 20260508001916 | 11 | 0 | 3.2 | 6.4 | 0.00 | 0.00 | 0.00 | 60 | 1013.9 |
| 20260508001409 | 11 | 0 | 3.2 | 9.7 | 0.00 | 0.00 | 0.00 | 60 | 1013.9 |
| 20260508001135 | 11 | 0 | 3.2 | 9.7 | 0.00 | 0.00 | 0.00 | 60 | 1014.2 |
| 20260508000357 | 11 | 0 | 4.8 | 9.7 | 0.00 | 0.00 | 0.00 | 60 | 1014.0 |
| 20260507235852 | 11 | 0 | 6.4 | 19.3 | 0.00 | 0.00 | 0.00 | 60 | 1014.2 |
| 20260507235346 | 11 | 0 | 9.7 | 19.3 | 0.00 | 0.00 | 0.00 | 60 | 1014.2 |
| 20260507234844 | 11 | 0 | 9.7 | 20.9 | 0.00 | 0.00 | 0.00 | 60 | 1014.3 |
| 20260507234344 | 11 | 0 | 8.0 | 20.9 | 0.00 | 0.00 | 0.00 | 59 | 1014.3 |
| 20260507233844 | 11 | 0 | 11.3 | 29.0 | 0.00 | 0.00 | 0.00 | 58 | 1014.3 |
| 20260507233343 | 12 | 0 | 12.9 | 29.0 | 0.00 | 0.00 | 0.00 | 57 | 1014.3 |
| 20260507232842 | 12 | 0 | 14.5 | 29.0 | 0.00 | 0.00 | 0.00 | 55 | 1014.3 |
| 20260507232342 | 12 | 0 | 17.7 | 37.0 | 0.00 | 0.00 | 0.00 | 54 | 1014.3 |
| 20260507231842 | 12 | 0 | 16.1 | 37.0 | 0.00 | 0.00 | 0.00 | 53 | 1014.3 |
| 20260507231342 | 12 | 0 | 14.5 | 37.0 | 0.00 | 0.00 | 0.00 | 53 | 1014.3 |
| 20260507230842 | 12 | 0 | 11.3 | 46.7 | 0.00 | 0.00 | 0.00 | 52 | 1014.2 |
| 20260507230342 | 12 | 0 | 16.1 | 46.7 | 0.00 | 0.00 | 0.00 | 52 | 1014.2 |
| 20260507225842 | 12 | 0 | 20.9 | 46.7 | 0.00 | 0.00 | 0.00 | 53 | 1014.3 |
| 20260507225341 | 12 | 267 | 12.9 | 46.7 | 0.00 | 0.00 | 0.00 | 50 | 1014.4 |
| 20260507224843 | 13 | 257 | 9.7 | 16.1 | 0.00 | 0.00 | 0.00 | 47 | 1013.8 |
| 20260507224341 | 13 | 254 | 11.3 | 16.1 | 0.00 | 0.00 | 0.00 | 47 | 1013.7 |
| 20260507223841 | 13 | 231 | 12.9 | 17.7 | 0.00 | 0.00 | 0.00 | 45 | 1013.8 |
| 20260507223342 | 13 | 259 | 11.3 | 19.3 | 0.00 | 0.00 | 0.00 | 47 | 1013.8 |
| 20260507222836 | 13 | 263 | 8.0 | 19.3 | 0.00 | 0.00 | 0.00 | 46 | 1013.8 |
| 20260507222336 | 13 | 297 | 6.4 | 14.5 | 0.00 | 0.00 | 0.00 | 46 | 1013.8 |
| 20260507221835 | 13 | 286 | 4.8 | 14.5 | 0.00 | 0.00 | 0.00 | 46 | 1013.8 |
| 20260507221336 | 13 | 292 | 6.4 | 14.5 | 0.00 | 0.00 | 0.00 | 46 | 1013.8 |
| 20260507221107 | 13 | 294 | 6.4 | 14.5 | 0.00 | 0.00 | 0.00 | 45 | 1013.6 |
| 20260507220336 | 13 | 336 | 6.4 | 19.3 | 0.00 | 0.00 | 0.00 | 44 | 1013.7 |
| 20260507215833 | 13 | 279 | 8.0 | 19.3 | 0.00 | 0.00 | 0.00 | 43 | 1013.7 |
| 20260507215333 | 14 | 303 | 11.3 | 20.9 | 0.00 | 0.00 | 0.00 | 44 | 1013.6 |
| 20260507214833 | 14 | 270 | 11.3 | 24.1 | 0.00 | 0.00 | 0.00 | 43 | 1013.6 |
| 20260507214605 | 14 | 248 | 8.0 | 24.1 | 0.00 | 0.00 | 0.00 | 43 | 1013.6 |
| 20260507213833 | 14 | 262 | 9.7 | 17.7 | 0.00 | 0.00 | 0.00 | 44 | 1013.6 |
| 20260507213334 | 14 | 259 | 12.9 | 24.1 | 0.00 | 0.00 | 0.00 | 44 | 1013.6 |
| 20260507212830 | 14 | 231 | 14.5 | 24.1 | 0.00 | 0.00 | 0.00 | 45 | 1013.7 |
| 20260507212329 | 14 | 258 | 14.5 | 24.1 | 0.00 | 0.00 | 0.00 | 44 | 1013.7 |
| 20260507211829 | 14 | 269 | 11.3 | 24.1 | 0.00 | 0.00 | 0.00 | 43 | 1013.7 |
| 20260507211330 | 13 | 326 | 8.0 | 17.7 | 0.00 | 0.00 | 0.00 | 47 | 1013.7 |
| 20260507210830 | 13 | 319 | 6.4 | 20.9 | 0.00 | 0.00 | 0.00 | 46 | 1013.8 |
| 20260507210330 | 13 | 330 | 8.0 | 20.9 | 0.00 | 0.00 | 0.00 | 47 | 1013.7 |
| 20260507205830 | 13 | 331 | 12.9 | 25.7 | 0.00 | 0.00 | 0.00 | 46 | 1013.8 |
| 20260507205330 | 13 | 319 | 11.3 | 25.7 | 0.00 | 0.00 | 0.00 | 46 | 1013.9 |
| 20260507204830 | 13 | 294 | 9.7 | 20.9 | 0.00 | 0.00 | 0.00 | 47 | 1013.9 |
| 20260507204323 | 13 | 313 | 9.7 | 20.9 | 0.00 | 0.00 | 0.00 | 46 | 1013.9 |
| 20260507203823 | 13 | 277 | 11.3 | 24.1 | 0.00 | 0.00 | 0.00 | 48 | 1013.9 |
| 20260507203324 | 13 | 319 | 12.9 | 24.1 | 0.00 | 0.00 | 0.00 | 48 | 1013.9 |
| 20260507202824 | 13 | 281 | 12.9 | 29.0 | 0.00 | 0.00 | 0.00 | 46 | 1014.0 |
| 20260507202323 | 13 | 302 | 14.5 | 29.0 | 0.00 | 0.00 | 0.00 | 47 | 1014.0 |
| 20260507201823 | 14 | 299 | 16.1 | 29.0 | 0.00 | 0.00 | 0.00 | 47 | 1014.0 |
| 20260507201554 | 13 | 265 | 14.5 | 29.0 | 0.00 | 0.00 | 0.00 | 45 | 1013.9 |
| 20260507201054 | 13 | 279 | 11.3 | 20.9 | 0.00 | 0.00 | 0.00 | 46 | 1014.0 |
| 20260507200324 | 13 | 286 | 12.9 | 27.4 | 0.00 | 0.00 | 0.00 | 49 | 1014.0 |
| 20260507195822 | 13 | 317 | 11.3 | 27.4 | 0.00 | 0.00 | 0.00 | 46 | 1014.0 |
| 20260507195321 | 13 | 288 | 14.5 | 29.0 | 0.00 | 0.00 | 0.00 | 49 | 1014.2 |